Preview of NWS' New Version of Forecast
This preview is not operational and should not be used for support decisions.

Regional Weather Roundup (RWR)

Issued by National Weather Service (NWS)

                            
000
ASUS46 KPQR 162310
RWROR 

OREGON REGIONAL WEATHER ROUNDUP
NATIONAL WEATHER SERVICE PORTLAND OR
400 PM PDT TUE APR 16 2019

NOTE: "FAIR" INDICATES FEW OR NO CLOUDS BELOW 12,000 FEET WITH
NO SIGNIFICANT WEATHER AND/OR OBSTRUCTIONS TO VISIBILITY.

ORZ001>013-170000-
NORTHWEST OREGON

  
CITY           SKY/WX    TMP DP  RH WIND       PRES   REMARKS
ASTORIA        CLOUDY    52  46  80 SW14G21   30.08R                  
TILLAMOOK      CLOUDY    54  46  76 SW12G17   30.12S                  
NEWPORT        CLOUDY    54  48  82 SW12      30.15S                  
PORTLAND       CLOUDY    61  43  51 W13       30.07R                  
VANCOUVER WA   CLOUDY    59  44  57 W6        30.07R                  
SCAPPOOSE      CLOUDY    60  46  59 SW8       30.06R                  
HILLSBORO      CLOUDY    57  47  69 SW8       30.07R                  
AURORA         CLOUDY    59  48  67 SW9       30.09R                  
MCMINNVILLE    CLOUDY    57  51  80 SW8       30.07R                  
SALEM          LGT RAIN  56  47  71 SW8       30.08R                  
CORVALLIS      CLOUDY    59  47  64 W18G25    30.10R                  
EUGENE         PTSUNNY   58  49  72 W15       30.11R                  
$$

ORZ021-028-170000-
SOUTHWEST OREGON

  
CITY           SKY/WX    TMP DP  RH WIND       PRES   REMARKS
NORTH BEND     MOSUNNY   57  49  74 SW18G24   30.16R                  
BROOKINGS      PTSUNNY   54  47  77 VRB5      30.18S                  
ROSEBURG       CLOUDY    63  40  42 VRB6      30.08S                  
SEXTON SUMMIT  CLOUDY    50  39  66 CALM      30.10R                  
GRANTS PASS    PTSUNNY   61  36  39 CALM      30.11S                  
MEDFORD        MOSUNNY   61  40  45 N7        30.08S                  
$$

ORZ014>016-041-170000-
COLUMBIA GORGE

  
CITY           SKY/WX    TMP DP  RH WIND       PRES   REMARKS
TROUTDALE      CLOUDY    61  44  53 W14       30.06R                  
HOOD RIVER     PTSUNNY   55  43  62 MISG      30.03R                  
THE DALLES     PTSUNNY   61  42  49 NW15G28   30.01R                  
$$

ORZ029>031-041-044-049-050-061>064-502-503-505>511-170000-
EASTERN OREGON

  
CITY           SKY/WX    TMP DP  RH WIND       PRES   REMARKS
MADRAS         SUNNY     59  34  38 SW10G17   30.02S                  
REDMOND        SUNNY     61  33  35 N9        30.00R                  
BEND           MOSUNNY   61  30  31 NE8       29.99S                  
PRINEVILLE     SUNNY     55  32  41 VRB5G17   30.01R                  
KLAMATH FALLS  MOSUNNY   53  33  46 VRB6      30.06S                  
LAKEVIEW       SUNNY     50  31  48 S7        30.07S                  
HERMISTON      PTSUNNY   65  38  36 SW14      29.98S                  
PENDLETON      PTSUNNY   58  39  49 W9G18     29.99S                  
JOHN DAY       PTSUNNY   55  32  42 SW6       30.01F                  
MEACHAM        CLOUDY    48  34  58 CALM      30.00S                  
LA GRANDE      CLOUDY    51  38  60 NE3       30.01F                  
BAKER CITY     MOSUNNY   54  34  46 CALM      30.00S                  
BURNS          CLOUDY    52  29  41 VRB3      30.02S                  
ROME             N/A     55  31  39 NW9       30.00R                  
ONTARIO        MOSUNNY   63  36  36 W13       30.00R                  
$$